Dewpoint
67 69 73 73 72 72 73 73 73 73 73 73 73 72 72 72 72 72 72 73 72 71 72 71 69 72 72 71 72 72 72 72 72 72 72 71 72 72 70 71 68 69 71
68 69 73 73 72 72 72 73 73 73 72 73 72 72 72 73 73 72 73 73 72 71 72 72 72 71 72 70 71 72 72 72 72 72 70 72 72 70 69 71 70 70 71
68 70 72 72 73 73 73 73 72 71 72 72 72 71 72 72 73 72 72 73 73 72 72 72 71 70 71 69 70 72 72 72 72 72 71 69 70 72 71 71 72 70 70
68 69 71 73 73 73 73 73 72 71 72 72 71 71 71 73 73 72 73 73 72 72 72 70 72 70 70 70 70 72 72 72 72 72 69 68 70 72 72 72 71 71 73
68 69 71 74 74 73 73 72 72 72 72 72 72 73 73 72 72 73 72 72 72 72 70 72 71 69 69 72 72 73 72 72 73 70 69 67 66 71 72 71 72 70 68
68 69 73 74 73 72 72 72 72 72 74 73 72 72 72 72 72 72 72 72 72 72 69 72 72 70 70 71 72 73 72 73 71 71 70 71 70 72 72 71 72 73 72
68 70 72 74 73 72 73 73 72 73 73 72 71 72 72 73 72 72 72 72 72 71 70 72 71 72 72 72 72 71 72 72 70 71 69 70 71 72 72 73 72 73 73
68 69 71 74 73 73 73 73 72 73 72 73 71 71 71 72 72 72 72 72 72 70 69 72 72 71 71 72 72 72 72 71 70 71 71 68 72 72 72 73 73 73 73
69 71 72 72 73 73 72 73 73 73 72 72 72 72 72 72 73 72 72 72 72 69 69 72 71 71 72 71 73 71 70 71 70 70 69 70 73 73 72 73 73 73 73
69 70 72 72 72 72 72 74 74 72 72 73 72 72 73 72 73 72 72 72 72 71 71 72 72 71 70 71 71 71 71 71 70 70 70 70 72 73 73 73 73 72 72
69 69 71 71 72 73 73 74 73 71 72 73 72 73 73 71 71 71 72 72 72 72 72 72 70 70 71 71 71 72 71 66 68 68 69 73 73 72 72 72 72 71 71
68 69 70 70 71 71 72 73 73 71 72 70 71 71 73 72 72 71 71 72 72 72 72 71 70 71 71 70 70 72 71 69 69 70 69 73 72 72 73 73 72 72 72
67 69 70 70 72 71 71 73 71 70 73 71 72 73 71 71 71 69 72 72 72 72 71 70 70 69 70 70 69 71 71 71 69 68 69 73 72 72 72 72 71 72 73
66 68 69 70 72 71 71 72 70 70 71 72 70 73 72 70 70 70 70 70 70 72 72 70 72 71 71 71 69 71 71 71 70 70 70 73 72 72 72 72 72 73 72
66 67 69 70 72 72 72 71 70 70 69 72 72 72 71 69 68 69 69 70 70 71 71 71 71 70 70 70 69 70 69 70 69 68 67 72 72 72 73 72 73 72 72
67 68 69 71 72 72 72 72 71 71 69 71 72 71 73 69 69 68 69 69 69 70 72 70 72 71 70 70 68 68 68 69 68 69 68 67 70 72 72 72 72 72 72
67 68 69 71 71 72 72 72 71 71 69 70 71 72 72 72 71 70 71 69 68 69 71 71 71 71 70 70 69 70 69 68 69 68 67 67 67 71 72 72 72 73 72
68 68 70 70 70 71 70 71 70 71 69 69 69 70 72 72 72 71 70 70 69 70 70 70 70 70 69 68 69 69 70 70 70 70 69 67 67 66 71 72 73 72 72
68 69 70 71 70 71 71 71 71 70 69 67 67 66 69 71 72 71 69 69 71 69 70 70 70 70 69 69 69 69 70 69 69 70 69 68 67 69 69 71 73 73 71
68 69 70 70 71 71 70 71 70 69 68 68 68 66 68 69 70 71 69 70 71 70 70 70 70 71 70 70 69 69 70 69 69 69 69 69 68 69 68 69 68 68 71
69 69 69 70 71 70 70 68 67 67 69 69 69 71 71 71 71 72 69 71 71 70 69 70 70 70 69 70 69 69 69 70 70 70 69 70 69 67 67 68 66 66 66
68 69 70 70 70 70 69 69 65 67 69 69 69 70 71 71 72 71 71 70 71 69 70 70 70 69 69 69 67 67 65 66 69 70 69 69 69 69 68 67 67 66 64
68 69 70 70 70 70 69 68 67 69 69 68 69 69 70 71 71 71 71 71 70 70 68 70 70 69 68 69 69 67 64 61 66 69 69 69 69 69 68 67 66 66 65
67 69 69 70 70 70 70 67 67 63 64 65 66 67 69 70 71 71 71 71 71 69 68 70 70 70 70 68 69 69 69 67 64 64 68 69 70 69 67 68 67 66 65
66 67 68 70 70 69 69 68 67 66 65 66 66 68 70 70 71 71 71 71 71 70 69 69 70 70 69 68 68 69 69 67 67 65 64 67 69 69 69 68 67 67 66
65 66 67 69 70 69 69 68 68 67 67 66 67 66 67 68 69 71 71 71 71 70 70 70 70 70 70 69 69 69 68 67 66 66 65 65 66 67 69 69 68 68 67
Wind_Speed
19 19 15 15 15 16 17 17 16 15 14 16 15 13 11 10 10 10 8 7 10 14 13 15 14 14 15 16 16 17 18 18 18 19 18 19 17 19 20 18 20 21 20
25 21 18 17 16 16 16 16 16 15 15 15 14 13 12 11 11 11 9 8 10 13 14 15 15 15 15 16 15 16 18 17 18 18 19 18 18 20 19 17 18 19 20
26 22 21 19 17 16 17 16 15 15 14 14 13 13 11 10 10 10 9 8 12 14 14 15 15 16 15 16 15 15 17 16 17 16 14 16 17 17 18 19 19 20 19
26 22 20 18 20 17 17 15 14 13 12 12 11 10 10 11 10 10 9 9 13 15 15 15 17 16 15 15 15 14 16 16 16 15 13 14 17 17 19 19 19 18 19
24 22 20 19 19 18 17 15 14 12 12 11 10 9 10 10 11 11 11 12 14 15 14 14 17 16 15 14 14 16 14 16 13 12 13 13 14 16 17 18 17 18 16
22 21 21 20 18 17 16 15 14 12 10 10 10 10 10 10 10 11 11 13 15 14 14 14 16 17 15 16 14 15 15 14 12 12 13 10 14 16 16 16 15 18 18
22 19 21 20 18 17 16 15 14 12 11 9 9 10 10 10 10 12 12 13 14 15 14 13 15 14 14 10 11 13 13 12 11 10 11 10 14 14 15 15 15 16 16
22 20 19 19 18 16 15 13 13 11 11 10 10 10 9 9 10 11 12 11 11 15 14 13 15 13 11 9 10 12 12 10 10 11 10 10 12 13 14 15 16 16 14
20 18 18 18 17 16 14 14 13 11 11 9 9 11 9 9 10 10 11 13 11 15 14 13 13 13 11 8 13 14 12 9 10 9 10 10 9 13 13 14 14 15 14
18 17 15 16 16 15 15 14 14 13 11 10 10 8 8 9 10 10 8 9 12 12 12 12 12 10 8 7 8 13 11 10 9 8 7 9 9 12 12 13 14 14 14
16 17 17 16 15 15 13 12 13 11 11 8 11 7 8 5 6 10 6 10 11 10 11 12 11 9 7 5 4 11 12 7 7 6 6 8 8 12 12 13 12 13 13
20 19 18 18 17 15 13 13 12 11 10 9 8 8 6 5 4 6 7 10 11 10 10 10 9 8 4 4 4 10 6 8 6 6 5 7 8 11 11 11 12 13 13
22 19 19 18 16 16 13 12 11 10 7 9 8 7 8 7 6 6 5 5 7 9 8 8 9 6 4 3 2 3 6 6 5 6 7 6 7 11 11 11 12 11 11
22 21 19 19 17 16 13 13 12 11 10 9 9 8 7 7 7 6 5 6 7 6 7 7 6 5 4 3 2 3 6 4 5 6 6 7 5 9 10 10 10 10 12
21 22 21 20 18 17 15 13 12 12 12 10 9 9 8 7 7 7 6 6 5 5 6 6 6 6 6 6 4 3 4 4 7 7 6 10 7 8 10 10 9 10 11
21 22 20 21 19 18 17 15 13 12 11 10 10 9 9 7 6 6 6 6 7 7 6 6 5 5 5 4 3 2 1 1 4 4 6 8 11 8 9 11 11 10 11
24 22 23 21 20 19 18 15 13 12 12 11 10 10 10 8 8 7 6 7 7 7 7 7 6 5 6 4 1 2 7 9 8 6 7 9 10 11 9 10 11 12 13
21 24 21 20 21 20 18 15 13 12 12 11 10 10 11 10 9 8 7 7 7 6 7 7 9 8 7 9 10 7 8 7 8 8 7 10 8 10 12 11 11 12 13
22 22 21 19 22 22 18 15 13 12 12 11 11 11 11 12 11 11 8 7 7 8 8 7 5 6 13 11 11 9 9 10 11 8 9 8 10 11 9 12 11 11 12
21 21 23 23 20 20 16 15 12 12 12 12 12 12 12 12 13 12 10 10 9 9 10 10 10 7 7 9 9 10 9 9 9 8 7 6 7 8 10 11 12 13 12
21 22 22 22 21 19 19 19 17 17 14 13 14 14 14 13 13 13 12 10 10 11 11 10 5 7 5 7 6 8 8 11 9 10 7 7 6 10 12 12 12 11 13
27 26 23 23 22 22 19 18 15 15 13 13 12 13 14 14 13 13 12 13 12 11 10 10 8 4 6 9 5 4 4 4 9 10 11 11 11 6 11 13 14 13 11
28 28 28 27 25 22 19 16 13 8 9 10 14 14 16 17 16 16 15 15 13 12 12 12 11 11 8 8 10 5 3 5 3 4 10 13 14 12 13 14 16 16 16
32 28 27 26 26 22 20 20 21 20 20 18 16 16 15 16 17 17 17 16 15 13 14 13 12 12 10 9 7 13 5 2 2 3 5 11 14 16 17 15 15 17 17
25 28 28 26 24 23 24 24 22 21 19 17 14 15 15 13 14 14 15 16 16 15 15 14 12 14 13 13 11 4 10 7 4 7 4 4 8 11 13 17 16 17 19
24 23 24 26 27 26 26 27 25 23 21 18 18 17 17 16 13 15 16 16 16 16 16 15 15 15 14 14 13 12 8 5 9 10 10 7 6 7 11 15 16 17 18
Wind_Direction
158 157 159 145 140 131 127 121 117 114 113 115 119 124 124 126 119 115 112 112 112 117 115 119 116 106 106 108 106 110 110 110 112 108 109 110 105 105 107 107 114 105 103
150 154 159 144 143 141 131 124 123 122 121 120 123 128 128 134 141 132 125 120 122 120 117 119 116 116 110 111 112 112 114 115 110 113 112 105 110 106 110 106 102 109 107
148 150 156 153 143 143 137 135 133 129 129 127 130 133 132 135 127 125 133 136 132 128 122 122 123 114 117 117 121 111 116 119 114 108 114 113 106 108 113 112 114 117 110
147 151 152 152 146 146 141 139 136 133 132 133 134 134 140 141 134 136 131 135 136 128 126 129 122 121 123 119 120 111 118 109 107 118 116 110 110 109 105 109 109 107 107
148 151 148 150 144 147 146 144 140 136 140 135 137 138 134 134 131 126 133 135 135 127 130 124 124 121 127 119 117 112 110 111 106 113 109 112 112 113 108 110 108 113 110
150 151 148 147 149 153 151 147 142 142 130 130 137 137 125 131 125 131 125 127 123 126 125 123 128 130 125 113 110 114 115 115 119 114 113 105 111 120 110 112 109 109 115
151 154 154 150 155 157 154 153 149 147 139 138 134 135 134 127 132 128 126 132 124 124 129 132 128 122 128 126 113 122 117 118 119 114 110 114 110 115 114 112 113 115 116
151 158 158 159 160 162 162 158 151 153 135 141 138 138 140 129 122 132 126 125 132 124 136 136 127 130 129 126 145 128 127 127 124 119 118 122 116 118 116 117 115 114 118
154 155 164 168 169 170 172 166 158 152 145 146 142 144 145 138 133 130 136 135 132 128 138 131 131 132 128 116 134 132 134 127 124 122 127 125 134 120 120 120 118 116 119
162 161 166 168 171 173 173 176 162 163 159 157 145 153 139 150 140 133 136 133 131 136 141 133 131 131 138 132 140 136 127 135 129 126 123 118 141 127 128 124 122 123 124
173 173 174 175 176 173 175 180 170 171 159 166 155 160 139 144 150 143 136 139 138 139 141 140 141 142 134 117 144 144 139 135 144 139 139 140 149 135 137 136 132 134 136
178 182 181 182 180 179 179 179 177 173 173 180 166 161 140 154 155 145 149 151 147 149 148 145 152 152 153 120 122 157 157 146 154 154 150 166 163 147 139 143 145 146 144
180 183 188 187 186 186 185 178 178 182 178 181 178 169 163 166 170 170 145 148 153 158 158 162 163 168 167 154 110 159 150 156 157 163 159 197 203 157 148 152 154 151 145
183 185 189 191 190 193 188 188 184 188 194 192 188 184 174 175 174 174 175 156 165 143 158 170 146 155 131 147 128 126 157 146 175 168 174 201 206 174 163 154 156 161 157
189 190 191 194 195 192 193 191 190 196 199 202 195 194 193 187 183 176 176 183 178 172 164 165 171 162 147 155 138 140 146 179 164 180 187 204 201 197 173 164 165 168 167
193 192 191 198 197 196 198 197 196 200 203 209 207 204 205 203 187 193 195 199 192 190 179 178 176 163 160 133 166 130 70 210 190 205 216 203 211 202 202 180 178 175 172
195 190 193 196 198 202 202 203 204 207 205 211 216 213 209 211 201 205 215 223 212 201 204 189 171 146 114 56 285 154 221 246 221 231 231 232 205 210 214 196 188 185 177
193 192 191 195 198 203 204 205 209 208 212 219 221 218 213 211 212 213 216 222 219 213 219 215 196 149 157 200 228 214 202 237 245 205 226 223 221 216 197 211 190 196 190
196 190 184 199 201 200 203 206 212 214 215 221 224 222 215 215 212 219 217 219 218 227 228 226 215 176 205 212 213 214 226 230 240 213 211 220 218 220 215 185 206 201 199
199 193 186 198 200 197 197 204 211 216 220 222 224 224 218 220 219 218 226 229 222 230 236 232 230 215 219 208 217 227 222 221 225 223 210 199 209 221 225 221 204 209 214
203 199 196 196 198 193 198 202 208 212 216 221 227 226 224 224 223 219 231 227 223 230 240 244 242 220 183 184 201 230 229 229 217 229 185 198 225 231 216 218 217 226 201
205 204 199 200 193 196 199 202 207 214 220 225 227 230 227 230 226 227 219 236 230 230 230 226 211 199 217 190 218 233 251 237 222 212 189 192 213 216 232 216 219 217 216
206 204 200 199 196 192 196 196 202 199 213 210 223 231 230 228 230 231 229 230 229 224 228 224 222 225 234 202 220 239 209 242 157 192 193 199 197 213 229 230 226 217 219
209 203 203 199 198 194 181 197 202 208 216 220 220 223 223 223 228 231 227 223 223 223 230 228 229 232 232 228 215 232 243 280 269 178 189 207 204 212 224 224 228 223 219
203 204 203 199 198 195 192 198 202 214 221 223 225 225 225 221 223 228 229 223 219 220 228 231 228 224 230 240 220 186 221 231 242 256 252 194 206 213 232 230 222 228 221
202 203 204 200 202 196 197 201 204 212 214 220 227 229 228 222 222 224 225 228 228 229 231 231 232 239 224 232 235 234 201 185 220 227 243 240 213 220 223 231 234 227 226